パンスターズ彗星

C/2022 R6 ( PanSTARRS )

English version
Home page
Updated on August 30, 2025

---------------------------------------------------------------------

・ プロフィール

発見日 2022年9月14日
発見光度 20.0等
発見者 Pan-STARRS 2 telescope (Haleakala)

・ 写真集

・ 軌道要素

Epoch 2025 May 5.0 TT = JDT 2460800.5
T 2025 Aug. 26.12519 TT                                 Pike
q   6.5655820            (2000.0)            P               Q
z  -0.0007606      Peri.  319.90889     -0.49660717     -0.76534663
 +/-0.0000005      Node   150.78591     +0.83819572     -0.30036755
e   1.0049940      Incl.   57.01894     -0.22540909     +0.56923094
From 1108 observations 2022 Sept. 14-2025 Feb. 27, mean residual 0".4.

・ 光度変化

        m1 = 4.0 + 5 logΔ + 10.0 log r

---------------------------------------------------------------------

軌道要素はM.P.E.C. 2025-D254に掲載されたものです。
光度グラフはComet for Windowsで作成したものです。

---------------------------------------------------------------------

Copyright(C) Seiichi Yoshida (comet@aerith.net). All rights reserved.